Погода Петропавловск-Каз.

Погода Петропавловск-Каз. : погода сейчас, прогноз погоды и архив. Всё, что Вы хотите узнать о погоде Петропавловск-Каз.!

Поиск расширенной информации на нашем сайте:

Другие новости

Новости СМИ2

Главная страница сайта

Новости сайта

02.10.2013

Напоминаем, что на нашем новом сайте вы можете получить высокодетализированные прогнозы погоды по пунктам России, СНГ и мира (включающие важные для авиации метеовеличины, такие как направление и скорость ветра, видимость, явления погоды, количество и форма облачности, нижняя и верхняя граница облачности), а также ознакомиться с разнообразными материалами по авиационной метеорологии и подборкой полезных ссылок на эту тему.

Сайт Метеоцентр.Азия посвящён разработке технологий оптимизации авиаметеорологического обслуживания, включая проектирование и перспективное создание нескольких автоматизированных авиаметеорологических систем:
- система выпуска высокодетальных прогностических карт явлений погоды для нижнего воздушного пространства по России и ближнему зарубежью;
- система верификации прогнозов TAF (выпускаемых синоптиками официальных АМСГ РФ и ближнего зарубежья) и AUTOTAF (выпускаемых сайтом Метеоцентр.Азия) - выявление ошибок, онлайн-сопоставление с фактической погодой METAR, автоматическое внесение коррективов в прогнозы при резком отклонении фактической погоды от прогноза, подсчёт оправдываемости прогнозов по элементам и в целом;
- система обработки, анализа и отображения авиаметеорологической информации для применения провайдерами метеорологической информации.

Рекомендуем: срочная доставка документов по москве

Погода Петропавловск-Каз. - сегодня

Время (UTC), дата Ветер
(°,м/с) 
Видим.   Явления Облачность Т
(°С)
Тd
(°С)
f(%) Тe
(°С)
Pmin
(гПа)
dP
(гПа)
Po
(мм)
O2
(г/м3)
Тmin Tmax R s Состояние
почвы
15 22.04.17 270 (З) 3{15}  10 км    ясно 
+7.3 -4.9 42 +7  1016.7  1.8  753  296    +9.3       
18 22.04.17 200 (Ю) н/о    ясно 
+4.6 -3.5 56 +4  1018.1  1.2  754  299    +9.3       
21 22.04.17 тихо ()   н/о  дымка  ясно 
+0.6 -1.4 86 +1  1018.4  0.1  754  303           
00 23.04.17 140 (ЮВ) 10 км    3/0 верхняя 
[Cc]
+2.7 -0.3 81 +2  1018.2  -0.1  754  301           
03 23.04.17 140 (ЮВ) 10 км    9/8 1000 м средняя 
[Sc|Ac trans]
+4.4 -1.7 65 +3  1017.1  -1  753  299           
09 23.04.17 110 (В) 10-16{22}  10 км    9/9 1000 м 
[Sc]
+10.8 +0 47 +9  1007  -5.3  746  289           
12 23.04.17 180 (Ю) 6{16}  10 км  слаб. ливневой дождь  10/10 600 м кучево-дожд. 
[Cb cap]
+6.8 +5.7 93 +5  1006.1  -1.1  745  292    +10.8       
21 23.04.17 130 (ЮВ) н/о  {ливн. осадки}  9/9 1000 м 
[Sc]
+5.1 +3.9 92 +3  1008.6  2.2  747  295           
00 24.04.17 200 (Ю) 10 км  {ливн. осадки}  10/10 600 м кучево-дожд. 
[Cb cap]
+5.4 +3.7 89 +4  1012.4  3.7  750  296           
03 24.04.17 230 (ЮЗ) 10 км    10/10 600 м кучево-дожд. 
[Cb cap]
+6.2 +3.8 85 +5  1015.5  3.1  752  296      0.0     
09 24.04.17 230 (ЮЗ) 10 км    4/3 1000 м средняя 
[Sc|Ac trans]
+11.6 +3.4 57 +11  1019.9  0.9  756  292           
12 24.04.17 260 (З) 10 км    3/0 верхняя 
[Cc]
+13.7 +2.6 47 +13  1020.2  0.4  756  290           
15 24.04.17 160 (Ю) 10 км    8/0 средняя, верхняя 
[Ac trans|Cc]
+10.8 +2.1 55 +11  1020.5  0.1  756  293    +14       
18 24.04.17 130 (ЮВ) н/о    10/10 1000 м 
[Sc]
+9.7 +2.9 63 +10  1020.3  -0.1  756  294    +14       
21 24.04.17 150 (ЮВ) н/о    10/10 1000 м 
[Sc]
+9.9 +3.5 64 +8  1018.1  -2.3  754  293           
00 25.04.17 160 (Ю) 10 км    6/3 1000 м средняя, верхняя 
[Sc|Ac trans|Cc]
+10.1 +3.2 62 +8  1017.6  -0.5  754  292           
03 25.04.17 170 (Ю) 10 км    8/0 средняя, верхняя 
[Ac trans|Cc]
+12 +2.9 54 +11  1016.3  -1.2  753  290           
06 25.04.17 180 (Ю) 10  10 км    9/0 средняя, верхняя 
[Ac trans|Cc]
+18.7 +5.6 42 +18  1014.9  -1.1  752  283  +9.4         
09 25.04.17 180 (Ю) 8{17}  10 км    8/0 средняя, верхняя 
[Ac trans|Cc]
+22.8 +6.1 34 +23  1014.4  -0.3  752  279           
15 25.04.17 310 (СЗ) 10 км    9/8 1000 м средняя 
[Sc|Ac trans]
+16.2 +8.3 59 +18  1015.4  0.4  753  285    +23.2       
18 25.04.17 290 (З) н/о  {ливн. осадки}  10/10 600 м кучево-дожд. 
[Cb cap]
+13.8 +10.8 82 +17  1015.4  -0.1  753  287    +23.2       
21 25.04.17 090 (В) н/о  {ливн. осадки}  10/10 600 м кучево-дожд. 
[Cb cap]
+13 +11.3 89 +16  1014.5  -0.9  752  287           
03 26.04.17 090 (В) 4000 м  слаб. ливневой дождь  10/10 600 м кучево-дожд. 
[Cb cap]
+12.2 +10.7 91 +15  1013.1  -1.2  751  288      0.6     
06 26.04.17 220 (ЮЗ) 10 км  в посл. час ливневой дождь  8/6 600 м кучево-дожд., средняя 
[Cb cap|Ac trans]
+17.4 +12.2 72 +22  1012.6  -1.1  751  282  +12.2    0.6     
09 26.04.17 180 (Ю) 10 км    6/3 1000 м верхняя 
[Sc|Ci fib]
+22.4 +14 59 +29  1011.7  -0.6  750  277           
Время (UTC), дата Ветер
(°,м/с) 
Видим.   Явления Облачность Т
(°С)
Тd
(°С)
f(%) Тe
(°С)
Pmin
(гПа)
dP
(гПа)
Po
(мм)
O2
(г/м3)
Тmin Tmax R s Состояние
почвы

Для получения пояснительной информации подведите курсор к названию столбца.

ПОГОДА Петропавловск-Каз. - архив

Всё, что Вы хотите узнать о погоде Петропавловск-Каз. - удобно и подробно!

Выберите нужную дату (начиная с 1 января 2015* года) и нажмите кнопку "Найти".
Будут отображены архивные сводки погоды по пункту Петропавловск-Каз., начиная с указанной даты.


Отображать данные в формате CSV (для использования в таблицах Excel)


Внимание! Наш архив погоды предназначен исключительно для личного некоммерческого использования в познавательных целях. Если Вам необходимы официальные справки о состоянии погоды (для производственных, юридических, коммерческих и т.п. целей), обращайтесь в органы Росгидромета.

*Примечание: данная дата относится к архиву по метеостанциям СССР (Россия, СНГ, Балтия).
Архив по метеостанциям Зарубежной Европы и Азии (кроме Китая) хранится 10 дней, по другим регионам земного шара (Китай, Африка, Америка, Австралия, Океания) - 1 день.

Петропавловск-Каз. - район местоположения метеостанции


Название, широта, долгота, высота метеостанции:
Петропавловск-Каз. 54.8°ш. 69.2°д. 142 м над ур. моря [Казахстан]

Дополнительная информация

В oтличие oт бoльшинства пoгoдных сайтoв мы публикуем пoдрoбную метеoинфoрмацию в детальнoм прoфессиoнальнoм фoрмате.

Характеристики температуры и влажнoсти вoздуха измеряются на высoте 2 м в тени вдали oт зданий и деревьев.
Скoрoсть ветра измеряется на высoте 10 м (на урoвне рoста челoвека скoрoсть ветра ниже в 1.5-2 раза). Если метеoстанция нахoдится в гoрoде или в лесу, тo скoрoсть ветра занижена на 2-4 м/с пo сравнению с oткрытым местoм. Скoрoсть ветра над акватoриями крупных рек и oзёр, а также на вершинах хoлмoв на 2-5 м/с выше, чем в oбычных услoвиях.
Атмoсфернoе давление в разных тoчках местнoсти мoжет значительнo oтличаться oт давления на метеoстанции, в зависимoсти oт услoвий рельефа (при пoдъёме на 10 м давление пoнижается примернo на 1 мм рт.ст.).